#timestamp,LO_Frequency,Hit,StdDev 
1512918015.2,286047001.7,N
1512918035.0,286047001.9,N
1512918035.9,286047001.9,N
1512918055.8,286047004.0,N
1512918075.6,286047003.0,N
1512918095.4,286047003.3,N
1512918115.3,286047001.5,N
1512918135.1,286047001.4,N
1512918155.9,286047002.0,N
1512918175.7,286047002.7,N
1512918195.5,286047000.4,N
1512918215.4,286047001.5,N
1512918235.2,286047004.3,N
1512918255.0,286047003.2,N
1512918255.9,286047003.2,N
1512918275.8,286047005.7,Y
1512918295.6,286047003.5,P
1512918315.5,286047003.1,P
1512918335.3,286047002.6,P
1512918355.1,286047002.6,Y
1512918375.9,286047000.5,P
1512918395.7,286047000.8,N
1512918415.6,286046998.4,N
1512918435.4,286046999.7,N
1512918455.2,286046998.6,N
1512918475.1,286046998.3,N
1512918476.0,286046998.3,N
1512918495.8,286046997.0,N
1512918515.7,286046997.1,N
1512918535.5,286046997.6,N
1512918555.3,286046999.2,N
1512918575.2,286046997.3,N
1512918595.9,286046999.5,N
1512918615.7,286046999.9,N
1512918635.6,286047002.7,N
1512918655.4,286046999.8,N
1512918675.3,286047000.5,N
1512918695.1,286047001.8,N
1512918696.0,286047001.8,N
1512918715.8,286047003.4,N
1512918735.7,286047004.2,N
1512918755.5,286047002.3,N
1512918775.3,286047000.9,N
1512918795.2,286047001.5,N
1512918815.0,286047003.7,N
1512918815.9,286047003.7,N
1512918835.8,286047000.8,N
1512918855.6,286046996.6,N
1512918875.4,286046998.7,N
1512918895.3,286046998.5,N
1512918915.1,286047000.6,N
1512918935.9,286046999.6,N
1512918955.7,286046999.5,N
1512918975.5,286047001.1,N
1512918995.4,286047001.6,N
1512919015.2,286047001.5,N
1512919035.0,286047003.5,N
1512919035.9,286047003.5,N
1512919055.8,286047003.8,N
1512919075.6,286047001.4,N
1512919095.5,286047002.1,N
1512919115.3,286047000.0,N
1512919135.1,286046998.9,N
1512919155.9,286046997.3,N
1512919175.7,286047000.7,N
1512919195.6,286046999.8,N
1512919215.4,286047002.6,N
1512919235.2,286047001.5,N
1512919255.1,286047002.8,N
1512919256.0,286047002.8,N
1512919275.8,286047002.6,N
1512919295.7,286047011.9,Y
1512919315.5,286047002.8,P
1512919335.3,286047000.2,N
1512919355.2,286046996.7,P
1512919375.0,286046999.2,N
1512919375.9,286046999.2,N
1512919395.7,286046998.3,N
1512919415.6,286047000.0,N
1512919435.4,286046999.8,N
1512919455.3,286046998.6,N
1512919475.1,286046996.9,N
1512919476.0,286046996.9,N
1512919495.8,286046996.7,N
1512919515.7,286046998.5,N
1512919535.5,286046998.4,N
1512919555.4,286046997.8,N
1512919575.2,286046995.8,N
1512919595.0,286046997.7,N
1512919595.9,286046997.7,N
1512919615.8,286046997.0,N
1512919635.6,286047001.1,N
1512919655.4,286047002.8,N
1512919675.3,286047001.4,N
1512919695.1,286047002.4,N
1512919715.9,286047002.1,N
1512919735.7,286047000.2,N
1512919755.5,286046998.3,N
1512919775.4,286047000.4,N
1512919795.2,286047001.6,N
1512919815.0,286047002.4,N
1512919815.9,286047002.4,N
1512919835.8,286046999.2,N
1512919855.6,286047002.4,N
1512919875.5,286046999.8,N
1512919895.3,286046998.4,N
1512919915.1,286046997.0,N
1512919935.9,286046999.6,N
1512919955.7,286047000.7,N
1512919975.6,286047000.4,N
1512919995.4,286047000.4,N
1512920015.2,286047000.4,N
1512920035.1,286046999.1,N
1512920036.0,286046999.1,N
1512920055.8,286046998.4,N
1512920075.6,286046999.7,N
1512920095.5,286047004.4,N
1512920115.3,286047002.5,N
1512920135.2,286047002.5,N
1512920155.9,286046998.2,N
1512920175.7,286047002.2,N
1512920195.6,286046999.9,N
1512920215.4,286047000.5,N
1512920235.3,286046996.8,N
1512920255.1,286046999.0,N
1512920256.0,286046999.0,N
1512920275.8,286046995.2,N
1512920295.7,286046997.8,N
1512920315.5,286046995.3,N
1512920335.3,286046997.4,N
1512920355.2,286046998.4,N
1512920375.0,286046996.9,N
1512920375.9,286046996.9,N
1512920395.8,286047001.0,N
1512920415.6,286046999.7,N
1512920435.4,286047001.7,N
1512920455.3,286046999.7,N
1512920475.1,286047002.4,N
1512920495.9,286047001.1,N
1512920515.7,286046998.7,N
1512920535.5,286047001.4,N
1512920555.4,286047005.4,N
1512920575.2,286047002.7,N
1512920595.0,286047001.8,N
1512920596.0,286047001.8,N
1512920615.8,286047005.5,N
1512920635.6,286047005.5,N
1512920655.5,286047001.4,N
1512920675.3,286046999.8,N
1512920695.1,286047002.2,N
1512920715.9,286047002.3,N
1512920735.7,286046999.8,N
1512920755.6,286047002.7,N
1512920775.4,286046999.8,N
1512920795.2,286047002.4,N
1512920815.1,286047000.3,N
1512920816.0,286047000.3,N
1512920835.8,286047000.6,N
1512920855.7,286047002.4,N
1512920875.5,286047002.0,N
1512920895.3,286047001.8,N
1512920915.2,286046998.9,N
1512920935.0,286046996.1,N
1512920935.9,286046996.1,N
1512920955.7,286046997.5,N
1512920975.6,286046995.2,N
1512920995.4,286046996.9,N
1512921015.3,286046999.3,N
1512921035.1,286047000.9,N
1512921055.8,286047002.3,N
1512921075.7,286047002.4,N
1512921095.5,286047001.7,N
1512921115.4,286047002.5,N
1512921135.2,286047002.7,N
1512921155.0,286047002.3,N
1512921186.0,286046999.5,E
1512921195.9,286046999.2,N
1512921215.7,286046999.6,P
1512921235.6,286046999.4,P
1512921255.4,286047000.4,N
1512921275.2,286047001.9,Y
1512921295.1,286047000.5,P
1512921296.0,286047000.5,N
1512921315.8,286047001.9,P
1512921335.7,286047001.4,N
1512921355.5,286046998.1,N
1512921375.3,286046998.9,N
1512921395.2,286047000.6,N
1512921415.0,286047003.4,N
1512921415.9,286047003.4,N
1512921435.8,286047004.9,N
1512921455.6,286047004.7,N
1512921475.4,286047001.5,N
1512921495.3,286047002.2,N
1512921515.1,286047003.7,N
1512921535.8,286047004.8,N
1512921555.7,286047005.3,N
1512921575.5,286047005.9,N
1512921595.4,286047003.0,N
